カタログに戻る

STARLINK-31855

運用中通信VLEO
NORAD 59838·PAYLOAD·🇺🇸 United States

打ち上げ May 23, 2024 から Cape Canaveral Space Force Station

Loading…

次のパス (今後24時間)

TLE

最新Source: CelesTrak SupGP

元期: Sep 15, 2026, 02:36 UTC

1 59838C 24097D   26258.10881944  .00008584  00000+0  31083-3 0  2583
2 59838  43.0025 284.3473 0001454 261.1706 296.4057 15.27582415    11

AllMySatでSTARLINK-31855をリアルタイム追跡

Download on the App Store